| time (UTC) | temp C | wind direction | speed KPH | gust KPH | rain 1hr cm | rain 24hr cm | rain mn cm | humidity % | barometer mb |
| 20260506160021 | 21 | 119 | 11.3 | 0.0 | 0.00 | 0.00 | 0.00 | 60 | 1008.3 |
| 20260506154518 | 21 | 133 | 11.3 | 0.0 | 0.00 | 0.00 | 0.00 | 57 | 1008.2 |
| 20260506153017 | 21 | 145 | 14.5 | 0.0 | 0.00 | 0.00 | 0.00 | 59 | 1008.1 |
| 20260506150016 | 21 | 150 | 14.5 | 0.0 | 0.00 | 0.00 | 0.00 | 58 | 1008.4 |
| 20260506144516 | 21 | 128 | 14.5 | 0.0 | 0.00 | 0.00 | 0.00 | 58 | 1008.4 |
| 20260506143016 | 21 | 131 | 12.9 | 0.0 | 0.00 | 0.00 | 0.00 | 59 | 1008.3 |
| 20260506140014 | 21 | 134 | 9.7 | 0.0 | 0.00 | 0.00 | 0.00 | 60 | 1008.4 |
| 20260506134513 | 20 | 168 | 11.3 | 0.0 | 0.00 | 0.00 | 0.00 | 62 | 1008.5 |
| 20260506133011 | 20 | 127 | 12.9 | 0.0 | 0.00 | 0.00 | 0.00 | 62 | 1008.6 |
| 20260506130009 | 19 | 133 | 11.3 | 0.0 | 0.00 | 0.00 | 0.00 | 65 | 1008.4 |
| 20260506124506 | 19 | 133 | 11.3 | 0.0 | 0.00 | 0.00 | 0.00 | 67 | 1008.5 |
| 20260506123006 | 18 | 124 | 11.3 | 0.0 | 0.00 | 0.00 | 0.00 | 68 | 1008.7 |
| 20260506120003 | 18 | 152 | 12.9 | 0.0 | 0.00 | 0.00 | 0.00 | 69 | 1008.8 |
| 20260506114504 | 18 | 109 | 12.9 | 0.0 | 0.00 | 0.00 | 0.00 | 70 | 1008.8 |
| 20260506113003 | 17 | 148 | 9.7 | 0.0 | 0.00 | 0.00 | 0.00 | 72 | 1008.8 |
| 20260506110104 | 17 | 69 | 8.0 | 0.0 | 0.00 | 0.00 | 0.00 | 74 | 1008.6 |
| 20260506104600 | 17 | 110 | 8.0 | 0.0 | 0.00 | 0.00 | 0.00 | 75 | 1008.7 |
| 20260506103057 | 16 | 135 | 9.7 | 0.0 | 0.00 | 0.00 | 0.00 | 76 | 1008.6 |
| 20260506100054 | 16 | 78 | 6.4 | 0.0 | 0.00 | 0.00 | 0.00 | 76 | 1008.4 |
| 20260506094616 | 16 | 100 | 9.7 | 0.0 | 0.00 | 0.00 | 0.00 | 76 | 1008.5 |
| 20260506093054 | 16 | 135 | 6.4 | 0.0 | 0.00 | 0.00 | 0.00 | 76 | 1008.5 |
| 20260506090049 | 17 | 106 | 8.0 | 0.0 | 0.00 | 0.00 | 0.00 | 76 | 1008.6 |
| 20260506084548 | 17 | 126 | 8.0 | 0.0 | 0.00 | 0.00 | 0.00 | 75 | 1008.6 |
| 20260506083046 | 17 | 119 | 9.7 | 0.0 | 0.00 | 0.00 | 0.00 | 75 | 1008.8 |
| 20260506073046 | 17 | 96 | 9.7 | 0.0 | 0.00 | 0.00 | 0.00 | 72 | 1008.8 |
| 20260506044524 | 18 | 127 | 8.0 | 0.0 | 0.00 | 0.00 | 0.00 | 64 | 1009.4 |
| 20260506043019 | 19 | 106 | 8.0 | 0.0 | 0.00 | 0.00 | 0.00 | 63 | 1009.3 |
| 20260506040037 | 19 | 72 | 9.7 | 0.0 | 0.00 | 0.00 | 0.00 | 61 | 1009.4 |
| 20260506034515 | 20 | 102 | 9.7 | 0.0 | 0.00 | 0.00 | 0.00 | 60 | 1009.3 |
| 20260506033015 | 20 | 110 | 11.3 | 0.0 | 0.00 | 0.00 | 0.00 | 58 | 1009.2 |
| 20260506030015 | 20 | 144 | 11.3 | 0.0 | 0.00 | 0.00 | 0.00 | 55 | 1009.2 |
| 20260506024519 | 20 | 145 | 9.7 | 0.0 | 0.00 | 0.00 | 0.00 | 55 | 1009.3 |
| 20260506023015 | 20 | 79 | 11.3 | 0.0 | 0.00 | 0.00 | 0.00 | 54 | 1009.2 |
| 20260506020013 | 20 | 90 | 9.7 | 0.0 | 0.00 | 0.00 | 0.00 | 54 | 1009.2 |
| 20260506014514 | 21 | 120 | 8.0 | 0.0 | 0.00 | 0.00 | 0.00 | 53 | 1009.0 |
| 20260506013013 | 21 | 119 | 8.0 | 0.0 | 0.00 | 0.00 | 0.00 | 53 | 1008.9 |
| 20260506010014 | 22 | 92 | 8.0 | 0.0 | 0.00 | 0.00 | 0.00 | 50 | 1008.5 |
| 20260506004522 | 23 | 65 | 8.0 | 0.0 | 0.00 | 0.00 | 0.00 | 45 | 1008.3 |
| 20260506003015 | 23 | 119 | 11.3 | 0.0 | 0.00 | 0.00 | 0.00 | 39 | 1008.1 |
| 20260506000011 | 24 | 87 | 11.3 | 0.0 | 0.00 | 0.00 | 0.00 | 37 | 1007.9 |
| 20260505234511 | 25 | 65 | 9.7 | 0.0 | 0.00 | 0.00 | 0.00 | 35 | 1007.7 |
| 20260505233011 | 25 | 116 | 14.5 | 0.0 | 0.00 | 0.00 | 0.00 | 33 | 1007.2 |
| 20260505230019 | 26 | 150 | 17.7 | 0.0 | 0.00 | 0.00 | 0.00 | 28 | 1007.1 |
| 20260505224510 | 26 | 120 | 16.1 | 0.0 | 0.00 | 0.00 | 0.00 | 26 | 1007.0 |
| 20260505223014 | 27 | 145 | 14.5 | 0.0 | 0.00 | 0.00 | 0.00 | 24 | 1006.9 |
| 20260505220009 | 27 | 116 | 17.7 | 0.0 | 0.00 | 0.00 | 0.00 | 27 | 1006.6 |
| 20260505214508 | 28 | 127 | 14.5 | 0.0 | 0.00 | 0.00 | 0.00 | 28 | 1006.6 |
| 20260505213007 | 28 | 75 | 14.5 | 0.0 | 0.00 | 0.00 | 0.00 | 29 | 1006.6 |
| 20260505210008 | 28 | 155 | 19.3 | 0.0 | 0.00 | 0.00 | 0.00 | 26 | 1006.4 |
| 20260505204507 | 28 | 99 | 19.3 | 0.0 | 0.00 | 0.00 | 0.00 | 28 | 1006.5 |
| 20260505203007 | 28 | 119 | 17.7 | 0.0 | 0.00 | 0.00 | 0.00 | 28 | 1006.6 |
| 20260505200005 | 29 | 141 | 19.3 | 0.0 | 0.00 | 0.00 | 0.00 | 26 | 1006.7 |
| 20260505194505 | 29 | 85 | 12.9 | 0.0 | 0.00 | 0.00 | 0.00 | 25 | 1006.8 |
| 20260505193002 | 29 | 154 | 14.5 | 0.0 | 0.00 | 0.00 | 0.00 | 26 | 1007.1 |
| 20260505190100 | 29 | 138 | 11.3 | 0.0 | 0.00 | 0.00 | 0.00 | 28 | 1007.7 |
| 20260505184559 | 29 | 117 | 12.9 | 0.0 | 0.00 | 0.00 | 0.00 | 28 | 1007.8 |
| 20260505183057 | 29 | 123 | 11.3 | 0.0 | 0.00 | 0.00 | 0.00 | 32 | 1007.9 |
| 20260505181659 | 29 | 193 | 11.3 | 0.0 | 0.00 | 0.00 | 0.00 | 30 | 1008.0 |
| 20260505180059 | 28 | 71 | 11.3 | 0.0 | 0.00 | 0.00 | 0.00 | 30 | 1008.2 |
| 20260505174603 | 28 | 114 | 11.3 | 0.0 | 0.00 | 0.00 | 0.00 | 32 | 1008.3 |
| 20260505173056 | 28 | 135 | 11.3 | 0.0 | 0.00 | 0.00 | 0.00 | 33 | 1008.5 |
| 20260505171654 | 28 | 121 | 12.9 | 0.0 | 0.00 | 0.00 | 0.00 | 33 | 1008.6 |
| 20260505170052 | 28 | 141 | 9.7 | 0.0 | 0.00 | 0.00 | 0.00 | 36 | 1008.8 |
| 20260505164613 | 27 | 92 | 6.4 | 0.0 | 0.00 | 0.00 | 0.00 | 36 | 1008.9 |
| 20260505163053 | 27 | 133 | 9.7 | 0.0 | 0.00 | 0.00 | 0.00 | 36 | 1009.1 |